Glens Falls, NY

12:28 PM EDT on June 21, 2018 (GMT -0400)
Bennett Memorial

Weather History for KGFL - August, 2017

Change the Weather History Date:

Sunday, August 13, 2017

  Actual Average Record
Temperature  
Mean Temperature 68 °F 68 °F  
Max Temperature 81 °F 80 °F 92 °F (1988)
Min Temperature 54 °F 56 °F 41 °F (2006)
Degree Days  
Heating Degree Days 0 1  
Month to date heating degree days 1 13  
Since 1 June heating degree days 106 124  
Since 1 July heating degree days 13 34  
Cooling Degree Days 3 4  
Month to date cooling degree days 50 52  
Year to date cooling degree days 283 272  
Since 1 June cooling degree days 262 260  
Growing Degree Days 20 (Base 50)    
Moisture  
Dew Point 60 °F    
Average Humidity 68    
Maximum Humidity 100    
Minimum Humidity 36    
Precipitation  
Precipitation T in 0.12 in 1.24 in (2004)
Month to date precipitation 0.73 1.68  
Year to date precipitation 26.35 23.81  
Sea Level Pressure  
Sea Level Pressure 29.87 in    
Wind  
Wind Speed 4 mph (SE)    
Max Wind Speed 16 mph    
Max Gust Speed 20 mph    
Visibility 4 miles    
Events      
T = Trace of Precipitation, MM = Missing Value Source: NWS Daily Summary

Daily Weather History Graph

Daily Weather History Graph

Search for Another Location

Airport or City:

Astronomy

Aug. 13, 2017 Rise Set
Actual Time 5:57 AM EDT 7:59 PM EDT
Civil Twilight 5:26 AM EDT 8:30 PM EDT
Nautical Twilight 4:48 AM EDT 9:08 PM EDT
Astronomical Twilight 4:06 AM EDT 9:50 PM EDT
Moon 11:21 PM EDT (8/13) 12:04 PM EDT (8/13)
Length of Visible Light 15h 04m
Length of Day
14h 02m
Waning Gibbous, 65% of the Moon is Illuminated
Aug 13
Waning Gibbous
Aug 14
Last Quarter
Aug 21
New
Aug 29
First Quarter
Sep 6
Full

Hourly Weather History & Observations

Time (EDT) Temp. Dew Point Humidity Pressure Visibility Wind Dir Wind Speed Gust Speed Precip Events Conditions
12:32 AM 64.0 °F 63.0 °F 96% 29.85 in 10.0 mi Calm Calm - N/A   Mostly Cloudy
12:45 AM 64.0 °F 63.0 °F 96% 29.85 in 10.0 mi South 4.6 mph - N/A   Overcast
2:33 AM 63.0 °F 62.1 °F 97% 29.85 in 6.0 mi Calm Calm - N/A   Scattered Clouds
3:18 AM 63.0 °F 62.1 °F 97% 29.85 in 4.0 mi Calm Calm - N/A   Mostly Cloudy
3:38 AM 63.0 °F 61.0 °F 93% 29.85 in 3.0 mi Calm Calm - N/A   Scattered Clouds
3:41 AM 62.1 °F 61.0 °F 96% 29.85 in 1.8 mi Calm Calm - N/A   Scattered Clouds
3:46 AM 61.0 °F 61.0 °F 100% 29.85 in 0.8 mi Calm Calm - N/A   Mist
3:57 AM 60.1 °F 59.0 °F 96% 29.86 in 1.5 mi North 4.6 mph - N/A   Partly Cloudy
4:47 AM 59.0 °F 57.2 °F 94% 29.85 in 1.5 mi ESE 3.5 mph - N/A   Scattered Clouds
4:51 AM 59.0 °F 57.2 °F 94% 29.85 in 0.8 mi East 3.5 mph - N/A   Mist
4:53 AM 60.1 °F 57.9 °F 93% 29.85 in 0.8 mi East 4.6 mph - N/A   Mist
5:01 AM 60.1 °F 59.0 °F 96% 29.85 in 2.5 mi East 3.5 mph - N/A   Mostly Cloudy
5:08 AM 62.1 °F 61.0 °F 96% 29.85 in 6.0 mi ESE 3.5 mph - N/A   Overcast
5:22 AM 61.0 °F 60.1 °F 97% 29.86 in 1.5 mi Calm Calm - N/A   Overcast
6:18 AM 59.0 °F 57.9 °F 96% 29.87 in 1.0 mi Calm Calm - N/A   Overcast
6:27 AM 62.1 °F 61.0 °F 96% 29.87 in 4.0 mi SSE 4.6 mph - N/A   Overcast
6:53 AM 62.1 °F 62.1 °F 100% 29.88 in 2.0 mi South 4.6 mph - N/A   Overcast
7:16 AM 62.1 °F 62.1 °F 100% 29.89 in 1.2 mi South 3.5 mph - N/A   Overcast
8:26 AM 63.0 °F 62.1 °F 97% 29.91 in 3.0 mi South 4.6 mph - N/A   Mostly Cloudy
9:04 AM 66.9 °F 63.0 °F 87% 29.91 in 8.0 mi SSE 3.5 mph - N/A   Scattered Clouds
1:53 PM 78.1 °F 53.1 °F 42% 29.93 in 10.0 mi NNW 8.1 mph - N/A   Scattered Clouds
4:53 PM 81.0 °F 52.0 °F 36% 29.94 in 10.0 mi NNW 3.5 mph - N/A   Clear
7:53 PM 70.0 °F 61.0 °F 73% 29.98 in 10.0 mi Calm Calm - N/A   Mostly Cloudy